Theta_e
317 318 319 320 321 323 323 325 326 325 328 329 331 331 330 330 328 328 328 328 329 329 330 330 330 330 331 331 328 328 328 328
317 317 319 320 321 322 322 323 326 325 326 328 330 330 330 329 328 329 328 329 329 330 331 330 331 330 329 330 328 329 330 329
316 317 319 319 320 321 321 322 324 325 325 328 329 330 330 329 329 329 329 330 330 331 331 331 332 331 329 329 327 329 330 329
317 318 319 319 319 319 321 323 323 325 325 328 328 329 328 329 329 329 329 329 331 331 330 330 331 329 305 313 323 327 330 330
317 318 320 320 320 321 320 324 324 324 324 327 327 328 327 327 328 328 328 329 331 331 330 331 331 329 302 305 313 328 329 328
319 320 321 321 321 321 322 324 323 322 323 326 326 327 326 327 328 328 329 329 330 330 330 331 330 326 301 303 309 328 328 328
322 322 323 323 321 322 322 323 323 322 321 326 326 327 326 327 327 328 327 328 328 327 328 329 330 323 301 303 318 326 327 328
322 323 323 323 323 323 321 321 322 322 321 324 326 328 327 328 329 328 327 328 327 325 327 331 319 322 299 303 320 327 325 326
323 323 323 323 324 323 321 322 321 324 323 323 325 327 329 330 331 328 326 326 325 326 325 326 329 326 317 300 308 325 326 327
322 321 322 324 323 323 322 321 324 325 324 322 324 327 328 327 330 328 326 327 324 323 323 324 325 328 310 300 300 310 314 327
322 322 322 322 322 323 322 323 324 324 323 323 323 325 326 328 328 327 323 325 323 322 321 321 322 324 327 302 300 301 305 326
322 322 321 320 322 323 325 324 323 323 323 324 323 322 325 327 327 327 325 322 322 320 320 321 321 321 325 327 324 318 303 316
322 322 321 321 321 322 325 324 322 322 324 323 322 322 323 326 327 326 325 327 321 322 321 321 322 321 321 316 319 325 326 316
321 322 322 322 321 322 323 323 323 324 323 322 321 320 320 324 325 322 296 302 302 299 302 314 321 307 298 297 298 299 296 296
320 322 322 322 321 322 323 323 322 323 324 324 321 317 319 320 324 324 323 311 301 299 300 300 302 306 295 294 293 293 293 297
322 322 321 321 321 321 323 323 322 323 326 307 322 320 320 319 321 322 323 323 323 323 301 306 297 297 295 293 291 297 307 306
322 322 321 320 320 322 323 322 323 323 323 319 322 321 321 318 321 321 321 322 323 324 325 303 301 294 292 291 292 316 316 315
320 320 321 320 321 323 323 323 323 323 322 310 314 321 320 320 320 321 321 321 321 322 322 323 317 308 316 315 310 315 320 319
324 323 324 323 323 323 322 323 325 322 321 318 311 320 320 320 320 320 321 321 321 321 322 320 303 320 323 323 320 319 320 321
325 325 325 325 325 324 323 323 324 323 322 321 317 319 321 321 323 322 322 321 321 321 322 319 293 317 324 323 322 321 321 322
Wind_Speed
15 15 15 14 14 13 11 9 8 7 7 6 6 6 6 6 6 6 5 6 6 5 4 5 5 5 6 5 6 5 6 6
17 16 15 14 14 13 11 9 7 7 7 6 7 6 6 6 6 6 6 6 6 6 5 5 6 6 6 7 7 6 6 7
18 17 15 15 14 12 11 9 9 8 8 7 7 7 6 7 7 6 6 7 6 6 6 6 6 5 5 7 7 7 7 8
18 18 16 15 15 13 11 10 10 9 8 8 8 8 8 9 8 7 7 7 6 6 7 7 7 5 7 9 7 7 7 7
21 20 18 16 15 13 12 11 10 10 9 9 8 9 9 9 9 8 7 6 5 5 5 5 6 6 5 8 6 6 7 6
19 18 17 16 15 14 12 12 11 11 10 10 9 9 9 9 9 8 6 5 6 5 5 5 5 5 4 7 5 7 6 6
19 18 18 16 16 15 14 13 11 11 11 11 11 11 10 9 9 7 5 6 6 4 4 6 7 5 4 8 8 6 6 7
19 19 17 16 16 15 15 14 13 12 12 12 12 12 11 10 9 8 5 6 6 4 5 6 8 8 4 5 7 7 8 5
19 19 17 17 17 16 16 14 14 13 12 12 11 10 11 11 10 7 7 7 7 6 7 5 7 9 6 3 7 5 6 9
20 19 17 17 17 17 17 16 14 13 12 12 12 10 8 9 10 8 8 8 8 7 7 6 5 6 6 4 3 5 7 8
16 19 19 17 17 18 18 16 14 13 12 13 12 11 9 9 10 9 8 8 7 7 6 5 5 5 6 8 6 7 4 6
17 18 20 19 18 18 18 16 16 14 13 12 12 12 10 9 8 8 8 8 7 7 7 7 6 5 5 6 6 5 6 5
18 19 18 20 20 19 17 17 17 15 14 12 12 10 12 10 9 7 8 9 9 8 7 8 8 8 8 9 9 8 7 7
16 17 15 18 20 20 19 18 18 16 14 12 11 11 11 10 10 7 7 3 7 2 4 8 8 3 13 13 10 9 12 15
18 21 20 18 21 20 19 20 19 18 15 13 11 11 11 11 11 10 9 3 4 7 7 9 7 9 12 13 11 11 12 10
17 18 18 18 19 21 21 21 20 18 16 14 13 12 12 12 12 11 10 10 10 9 7 8 10 8 10 10 13 12 5 6
14 16 16 18 19 19 19 20 19 19 15 13 13 12 12 12 11 12 11 11 10 10 8 5 7 6 7 11 17 10 10 11
14 16 19 20 19 19 19 20 18 15 15 15 14 12 12 12 12 12 11 12 11 10 10 10 9 8 9 9 10 11 11 11
9 12 14 16 17 16 19 19 18 14 13 13 15 13 13 14 13 12 11 11 11 10 11 11 13 13 13 12 11 12 12 11
7 4 6 10 13 16 17 19 17 14 13 12 14 15 13 14 13 13 12 12 12 11 11 9 12 12 11 11 12 12 13 13
Wind_Direction
166 167 164 166 167 167 160 164 168 161 161 168 152 155 161 157 150 159 152 148 146 155 168 155 136 116 106 96 99 100 113 122
166 168 168 171 171 170 163 165 169 161 162 168 150 154 149 148 148 157 156 146 147 151 151 142 129 118 109 112 107 99 103 108
170 169 174 172 169 172 166 166 168 161 156 158 139 135 128 132 137 145 142 134 134 140 143 139 129 120 122 117 112 105 107 110
169 175 177 174 171 175 165 166 161 162 157 151 141 133 135 135 136 136 133 129 134 135 141 145 140 119 126 128 125 119 108 115
175 179 179 176 175 173 170 168 159 162 162 154 148 141 140 142 141 137 134 133 137 135 135 144 140 124 155 133 130 119 110 116
178 179 179 178 173 175 166 166 166 164 168 161 154 148 145 145 149 142 141 140 143 132 129 137 130 115 129 136 140 106 110 125
176 175 174 171 173 174 168 172 171 170 172 169 165 157 153 156 152 146 139 143 141 147 115 129 130 119 127 139 132 115 113 135
169 171 171 172 176 172 169 175 177 180 177 176 173 170 167 168 158 149 136 136 136 137 119 125 122 130 164 145 148 141 134 122
165 167 173 177 170 173 176 177 185 183 176 176 175 175 178 173 159 152 146 137 129 125 116 115 134 139 158 149 127 118 127 125
178 168 175 174 172 176 180 184 184 180 173 175 176 175 179 170 167 154 148 145 136 133 133 136 137 144 133 163 180 146 153 144
187 174 171 175 177 181 184 187 179 176 175 175 175 174 175 176 174 165 157 162 156 156 155 146 144 149 150 135 141 149 126 148
177 188 174 177 181 186 188 178 178 178 178 179 175 175 174 176 180 179 175 176 173 172 170 159 152 157 162 160 159 144 123 100
180 190 185 180 180 185 182 181 178 180 180 177 179 182 183 175 188 182 191 192 186 180 186 178 171 174 178 173 169 171 170 143
186 187 189 184 184 183 180 181 181 177 182 179 180 182 185 186 179 176 54 4 202 160 164 190 189 135 147 165 168 141 136 155
193 190 189 185 184 185 182 181 182 183 184 183 180 184 184 187 190 193 194 145 158 199 184 195 219 180 171 171 153 137 157 165
202 185 185 184 193 190 184 182 182 185 186 173 182 192 190 191 194 196 202 200 201 200 202 209 208 185 175 150 143 135 150 222
204 197 182 187 192 199 186 184 185 184 183 183 190 187 192 195 196 203 206 208 209 208 179 186 149 138 138 148 168 205 207 210
199 195 191 189 192 193 189 186 185 186 190 182 182 184 183 192 200 206 209 212 212 213 205 208 164 156 189 189 197 210 215 215
307 235 205 198 198 183 185 185 183 191 193 182 189 185 190 195 198 203 207 209 213 215 217 210 177 192 204 208 203 209 216 217
1 321 231 212 194 185 187 184 187 189 192 188 192 199 192 195 199 200 205 209 214 215 218 203 168 211 215 214 215 214 215 219